Theta_e
323 323 323 323 322 327 328 328 329 329 330 330 331 331 331 330 332 331 331 332 332 333 332 331 330 332 332 332 331 329 326 313 311 310 309 318 322 329 331 333 334 335 329 311 309 308 305 306 309 310 305 306 304 304 304 305 305 304 297 291 291 294 295 297 294 292 295 293 294 295 295 297 297 299 302 304 303 302 303 306 306 308 310 310 311 313 316 318
322 323 322 323 322 323 327 328 328 329 329 329 331 331 331 331 331 331 331 331 332 333 332 331 330 331 331 331 330 328 320 314 309 307 309 321 331 331 331 335 338 337 322 310 307 305 305 305 307 305 304 303 305 304 305 303 305 299 293 292 293 294 298 300 295 294 293 294 294 293 293 298 298 298 301 302 299 301 303 303 304 306 309 311 313 316 317 317
322 323 322 323 324 322 326 328 328 328 328 329 330 330 330 330 330 330 330 330 330 331 332 331 331 329 331 330 328 324 320 317 313 309 314 326 330 332 331 336 337 332 313 310 308 307 307 305 306 305 304 301 300 301 301 300 304 299 297 294 293 297 300 299 295 294 294 293 293 293 294 296 298 299 300 301 298 300 301 299 302 303 306 307 311 314 315 316
320 322 321 323 322 322 325 327 328 328 328 328 329 330 330 329 329 329 330 330 330 331 331 331 330 330 329 327 324 323 322 317 312 317 321 329 328 331 333 333 336 327 316 312 310 310 312 310 307 306 302 300 299 300 301 300 302 299 297 294 296 299 298 299 296 294 292 293 293 293 293 295 295 295 299 296 299 298 300 300 304 304 307 308 310 312 314 315
321 321 322 322 322 322 321 327 327 328 328 328 327 328 329 329 329 328 329 330 330 331 331 331 331 330 329 326 323 324 319 311 313 322 322 330 331 329 335 337 334 317 317 317 318 315 312 309 307 306 301 298 299 299 296 298 300 299 298 297 299 299 298 299 297 294 292 292 292 291 295 295 295 296 295 299 298 297 300 304 304 305 306 311 313 314 314 314
321 321 321 321 322 322 322 326 326 327 328 328 327 327 328 329 329 329 328 329 329 329 331 330 330 328 326 325 323 321 315 297 313 313 326 333 331 333 334 335 329 318 317 314 316 313 311 309 307 303 300 299 298 298 296 297 301 298 295 296 296 296 299 298 297 296 294 293 292 291 295 295 295 295 292 299 299 298 298 300 302 304 308 314 314 315 314 314
320 321 321 321 321 321 322 325 326 326 327 328 328 328 327 329 329 329 328 328 330 329 330 329 329 327 325 325 321 319 311 312 314 317 327 334 333 332 334 335 325 315 315 312 313 311 311 308 306 301 300 299 298 296 299 299 299 297 295 295 298 295 298 297 299 296 295 294 293 292 297 297 293 295 293 295 299 302 297 295 294 296 313 315 314 314 315 315
319 320 319 320 320 321 321 323 325 326 326 327 328 328 327 329 329 329 327 326 328 329 329 328 328 327 325 319 315 309 310 310 318 321 326 332 332 330 329 320 317 314 312 311 310 309 309 308 308 306 302 300 299 300 299 299 299 297 296 295 297 295 294 294 295 296 295 295 296 296 297 296 293 294 293 294 297 298 296 297 303 309 312 313 313 314 315 315
319 320 320 319 320 320 321 322 325 325 326 327 328 327 327 328 329 329 327 327 328 328 329 329 328 326 326 319 312 307 305 318 324 325 323 325 326 322 319 315 315 313 310 310 311 311 309 306 311 309 303 301 303 300 299 299 296 297 297 296 295 296 296 296 297 297 297 299 296 298 296 295 295 296 297 299 300 298 295 298 307 310 311 313 314 315 315 315
319 319 319 319 320 319 320 321 324 325 326 326 327 327 327 328 328 328 328 327 326 324 328 328 328 326 321 315 311 302 311 318 326 325 326 325 322 318 317 315 314 312 310 308 309 310 307 306 310 314 309 306 304 301 300 300 299 297 296 297 297 297 296 297 297 296 297 299 297 297 296 298 298 297 295 297 300 298 298 301 305 310 311 313 314 314 315 315
319 319 319 319 320 319 320 322 323 324 325 325 326 327 327 327 327 327 328 327 326 325 327 327 327 323 317 315 307 301 316 322 324 325 324 323 320 317 314 313 313 311 310 307 308 310 309 309 312 312 308 304 304 302 300 299 299 297 296 296 297 296 297 297 297 296 298 300 297 299 297 296 296 295 295 300 299 295 297 298 302 307 310 313 314 315 315 315
318 319 319 319 319 319 320 322 323 323 325 325 325 326 326 327 327 327 327 327 327 326 327 328 326 323 318 312 307 306 316 322 324 324 325 323 320 318 315 314 312 310 311 308 308 311 311 311 311 309 302 309 302 302 302 300 301 298 299 299 295 297 297 297 297 297 297 298 298 298 296 295 296 296 296 301 300 296 296 296 301 304 307 310 312 314 314 316
318 319 319 318 319 319 319 321 323 323 324 324 325 325 325 326 326 326 325 326 327 327 325 323 324 320 315 306 311 316 315 319 323 322 321 321 319 319 319 319 318 312 311 311 309 312 312 312 311 307 307 305 303 302 305 303 299 299 298 297 297 295 294 298 297 298 297 298 296 299 291 294 297 300 298 300 301 298 297 295 296 302 304 307 310 313 315 315
318 319 319 318 318 319 319 321 322 323 323 324 324 324 324 325 326 326 325 323 326 326 325 325 320 313 313 308 315 318 319 321 323 320 319 321 319 317 318 318 318 318 315 313 312 313 313 312 313 311 310 303 301 309 302 301 299 297 297 298 293 295 294 296 298 297 297 298 296 298 292 295 299 297 298 299 298 299 300 299 297 297 300 303 306 311 313 315
318 318 318 318 318 319 319 319 321 323 323 323 323 324 324 325 325 326 324 324 324 325 325 323 317 311 306 308 316 319 327 323 318 318 320 318 316 314 315 317 317 318 317 316 315 316 316 314 312 307 305 306 305 302 297 297 296 294 296 293 294 296 296 296 297 297 298 298 297 298 292 295 299 299 299 299 299 298 299 300 299 298 297 298 301 304 309 313
318 318 318 318 318 319 319 319 321 323 323 322 321 321 322 324 325 325 325 323 324 322 321 314 313 310 303 301 310 321 320 314 314 320 320 319 317 313 316 316 318 318 319 315 319 319 318 316 309 305 304 306 302 298 298 297 295 295 295 291 292 292 295 296 297 296 299 298 299 299 293 294 296 298 296 295 299 297 296 297 297 297 296 296 297 300 303 306
318 318 318 318 317 318 318 319 320 321 321 320 321 320 321 323 324 325 325 323 319 319 316 309 311 311 300 307 316 313 311 313 319 319 319 320 319 316 316 315 314 315 317 316 315 316 315 311 310 307 307 301 303 301 295 293 293 292 292 291 291 291 293 293 295 296 296 297 296 296 295 298 300 297 297 297 297 295 295 297 297 298 298 298 297 297 299 302
317 318 317 317 317 317 318 319 320 320 320 319 320 320 319 321 321 318 315 316 315 313 312 313 311 306 302 309 303 308 314 313 316 317 317 319 320 317 315 313 314 313 314 312 313 311 312 307 308 300 302 302 302 299 294 290 294 292 291 291 293 294 294 294 294 296 297 295 294 294 294 297 300 301 300 298 294 296 296 297 298 298 298 298 297 297 297 298
318 318 318 317 318 318 318 319 319 319 320 321 321 321 318 317 312 310 308 308 307 300 298 298 301 292 290 301 307 309 311 316 319 317 313 316 316 317 317 316 312 308 305 306 306 309 307 304 305 301 297 299 299 299 298 298 297 294 294 294 293 292 291 291 294 295 297 294 293 292 293 295 298 299 300 300 299 297 299 298 298 298 298 298 298 297 297 298
317 317 317 317 317 317 317 318 319 319 319 315 311 310 309 303 302 298 303 305 302 302 304 303 306 301 299 300 305 310 315 319 312 314 315 316 315 313 312 312 308 309 304 299 303 306 307 299 296 296 299 300 302 302 302 299 300 297 296 295 294 293 291 291 293 294 296 295 293 294 294 294 297 298 298 298 297 297 299 300 301 302 301 300 300 300 301 300
318 317 316 316 317 316 316 317 319 318 317 311 310 305 297 297 293 291 297 301 303 298 299 303 305 300 300 301 306 311 308 309 313 311 314 319 314 311 306 308 304 299 301 303 301 308 306 297 297 300 302 302 302 302 301 301 299 297 293 293 293 292 292 293 295 294 294 294 290 292 293 294 296 298 298 298 296 297 299 300 301 301 302 301 301 301 301 301
317 317 315 317 317 316 317 317 318 318 317 312 307 300 302 303 302 307 303 295 300 300 299 303 301 299 303 306 309 309 310 306 308 310 315 316 310 305 303 303 300 296 301 302 301 298 296 295 299 301 302 303 301 301 301 300 298 298 295 292 290 291 290 294 294 293 292 294 292 292 291 294 296 298 299 298 298 300 302 302 302 302 302 301 301 301 300 299
316 316 316 317 317 317 316 316 317 316 311 306 301 301 302 305 305 307 303 300 298 301 301 301 302 299 302 304 306 306 306 304 303 307 310 313 307 305 304 301 298 298 300 299 294 293 288 292 299 304 303 301 299 301 301 300 299 296 295 293 292 294 292 289 294 291 291 294 288 287 288 291 294 296 296 298 298 299 302 302 301 301 301 302 302 302 302 300
316 315 316 316 317 317 318 316 315 313 308 304 302 302 306 307 308 306 298 289 290 299 302 303 302 299 301 304 308 304 304 304 306 303 314 311 303 306 303 302 298 298 296 297 296 293 291 299 304 304 302 302 299 299 299 298 297 297 296 294 294 292 295 294 293 290 290 291 291 290 291 293 295 295 298 299 298 298 299 300 299 300 300 302 302 302 302 302
316 315 316 316 315 316 314 314 308 307 307 304 301 300 307 308 308 302 295 287 290 292 303 303 304 301 304 304 303 304 298 300 301 310 313 311 305 304 301 305 300 295 297 298 297 294 294 299 304 302 301 301 300 296 297 298 295 297 296 295 296 295 295 294 293 293 290 288 289 291 286 290 290 295 297 299 294 293 295 295 297 299 300 300 300 301 302 302
315 315 315 315 315 315 314 305 304 309 304 299 301 305 308 307 304 298 289 275 278 287 296 290 306 299 308 301 302 298 302 295 302 311 312 310 311 305 304 300 301 294 297 297 295 295 295 300 301 300 300 299 299 298 298 298 295 294 296 297 294 294 294 293 291 295 288 288 290 289 289 288 288 290 291 293 291 294 296 294 297 299 300 299 300 301 302 302
315 315 315 314 314 314 305 298 309 307 299 298 302 306 306 304 299 298 289 273 271 287 288 298 297 295 303 301 300 301 288 291 304 310 310 311 306 307 300 298 300 300 301 300 294 291 298 298 298 300 300 298 296 296 299 299 296 293 296 297 295 294 292 292 293 293 292 292 292 288 289 285 287 293 292 293 294 296 297 298 297 297 298 298 299 300 301 302
315 314 314 314 313 310 305 307 306 301 300 303 305 306 305 302 298 293 283 270 264 292 287 292 294 302 301 301 302 295 293 301 296 303 313 310 309 302 300 297 296 296 298 297 286 297 297 295 296 295 297 297 295 299 300 301 296 294 296 299 295 295 293 292 292 288 287 289 288 288 287 284 285 286 291 295 294 295 295 297 300 302 303 302 300 300 300 301
314 313 313 313 312 311 311 307 305 301 303 304 304 305 304 301 296 287 274 269 282 281 294 293 305 300 297 302 298 295 295 298 293 304 309 308 309 305 298 299 299 298 299 298 292 293 298 298 298 298 296 294 299 301 301 301 297 296 296 297 295 292 290 292 287 288 289 288 286 289 288 286 288 290 288 287 288 292 293 296 299 300 301 302 302 302 302 300
313 312 312 311 310 308 306 308 304 303 305 306 305 305 304 299 291 281 273 264 284 273 291 293 295 292 299 295 295 296 292 294 299 305 306 303 305 306 301 305 300 298 296 298 296 294 297 301 302 299 296 298 300 301 302 302 299 298 299 297 292 287 285 284 284 286 287 284 287 293 289 289 285 289 290 289 290 292 294 295 297 298 300 301 301 301 302 301
313 311 310 312 305 306 306 300 302 306 306 304 306 304 299 290 279 275 267 273 283 284 295 292 288 299 294 293 290 293 290 293 297 301 298 302 300 304 302 299 301 296 294 295 293 295 298 300 298 298 303 302 303 297 298 301 299 299 292 291 292 289 289 288 286 287 285 284 290 293 289 290 284 286 288 293 291 290 295 295 296 298 299 300 300 301 300 298
313 312 311 308 308 309 302 299 304 307 306 304 304 298 292 279 279 273 267 285 274 282 287 287 293 293 294 296 294 293 290 289 295 299 296 297 294 295 297 291 295 285 285 286 287 294 292 295 298 298 302 303 297 297 295 298 298 297 294 294 288 285 287 282 286 282 283 283 287 286 290 285 287 293 288 288 292 294 292 294 297 298 299 300 299 298 297 295
312 311 311 309 309 306 306 307 307 306 306 305 300 295 285 278 270 275 274 274 266 286 284 293 291 293 293 292 290 293 291 288 294 297 299 298 295 296 299 297 298 293 284 290 289 288 290 296 297 297 299 302 301 294 291 292 295 295 293 290 287 283 282 280 284 285 286 286 291 285 287 286 293 295 299 299 300 299 297 297 296 298 300 299 298 296 297 297
312 311 307 307 307 308 308 308 307 306 304 302 294 287 282 275 273 283 273 269 277 286 291 288 292 292 292 287 289 292 287 290 295 294 296 292 294 291 295 297 299 293 288 290 287 287 284 284 291 296 292 302 300 299 297 295 295 295 296 294 288 287 283 280 283 280 282 285 283 285 287 283 286 289 289 291 295 298 298 294 296 296 295 297 297 296 296 296
312 309 307 306 306 308 308 307 307 306 304 297 289 283 276 275 279 276 270 269 275 284 286 292 289 289 287 286 287 291 291 288 294 294 292 292 290 291 291 294 296 295 289 288 289 288 287 288 295 301 299 302 298 302 300 296 293 296 295 296 290 287 288 284 283 285 285 282 279 278 282 286 291 292 294 293 290 292 293 293 294 296 298 297 295 295 296 297
309 305 306 302 304 306 308 308 306 304 300 292 284 279 276 278 275 280 278 282 282 284 286 290 289 285 285 284 287 289 292 287 291 292 291 292 292 291 295 296 295 296 290 288 290 285 287 285 293 299 300 300 300 302 299 301 287 293 295 289 292 297 292 286 285 284 283 280 282 280 282 285 290 295 298 298 296 296 295 295 294 295 296 295 294 296 296 295
303 304 300 302 303 307 308 307 306 302 297 290 283 277 281 278 279 282 288 284 282 289 287 281 283 284 283 282 284 287 287 289 291 290 285 291 286 291 292 293 298 297 296 292 287 288 287 287 294 295 294 300 304 303 301 301 298 294 289 294 296 296 294 290 283 280 279 280 281 285 285 286 283 284 287 291 294 296 296 297 297 296 295 294 295 295 295 295
301 301 301 301 303 306 308 307 303 299 294 287 280 283 280 276 284 283 286 287 288 287 285 284 285 289 283 284 283 286 288 285 286 288 285 290 284 295 292 290 296 297 298 297 290 287 289 285 286 295 297 298 299 299 296 299 297 296 293 300 292 285 286 285 286 279 278 278 279 281 285 286 285 288 287 287 289 293 295 298 298 297 296 296 295 294 294 294
301 299 293 300 305 306 306 306 301 295 289 282 280 281 279 281 286 284 286 289 288 287 284 285 283 284 287 284 284 287 288 281 288 285 285 287 283 291 292 293 291 297 299 298 292 288 290 283 283 291 294 295 298 297 287 293 298 294 297 296 295 292 288 286 287 286 284 280 277 281 282 282 289 290 293 292 290 292 294 295 296 298 298 298 298 295 293 294
297 293 289 302 305 306 305 303 296 292 286 279 281 279 284 281 284 286 288 291 285 284 280 284 283 283 285 283 286 284 288 286 287 285 285 288 286 292 291 295 290 293 297 299 295 296 287 288 281 285 292 295 286 294 292 294 291 291 292 290 290 289 290 289 288 286 283 283 281 277 280 281 288 291 290 292 292 293 294 295 296 297 298 298 298 297 295 294
299 291 291 303 304 305 303 297 290 285 283 284 283 279 280 281 285 286 285 285 285 284 283 283 285 283 283 283 280 285 284 285 284 285 285 285 287 282 290 293 294 293 295 295 295 294 286 285 283 286 288 288 292 297 298 297 297 294 293 291 293 290 286 285 283 289 284 283 278 278 280 288 288 288 294 293 294 294 295 296 297 297 297 297 296 295 294 294
292 285 289 303 304 303 295 286 285 289 285 282 281 282 280 291 284 285 285 284 283 283 283 285 284 284 283 283 283 285 284 284 285 285 284 284 288 287 288 296 295 295 294 291 293 298 292 286 288 284 285 290 295 295 293 294 296 297 296 293 296 294 292 287 283 284 286 287 285 280 278 286 296 290 292 295 295 295 296 295 296 297 296 296 296 291 293 292
287 287 299 302 304 300 292 285 288 286 283 285 288 287 287 285 283 284 284 286 282 280 282 283 285 284 284 284 283 284 286 283 285 284 285 286 287 290 288 294 294 293 296 291 295 295 295 285 285 287 288 288 293 293 295 293 294 292 295 293 294 292 293 291 290 289 286 286 285 283 281 287 296 289 292 293 292 295 296 295 295 296 296 296 295 291 291 292
291 291 293 301 304 300 289 281 281 283 283 285 286 284 285 284 285 284 284 284 284 281 282 283 281 287 284 285 285 284 287 279 284 285 283 284 285 290 288 292 294 292 294 291 291 296 289 286 288 284 283 284 285 287 290 289 291 289 292 295 296 296 296 293 288 284 285 286 287 285 280 286 296 289 289 289 291 291 292 293 292 293 295 295 295 295 292 291
289 289 289 295 300 297 286 287 285 284 284 283 283 283 284 284 285 286 286 284 281 279 282 283 284 284 282 285 284 284 287 285 278 286 285 284 285 285 287 292 294 293 295 294 297 297 290 288 287 280 277 275 275 276 280 284 287 290 293 294 295 294 294 291 287 288 284 288 288 285 286 292 297 289 288 286 288 289 290 290 290 289 291 294 295 296 294 292
286 281 285 287 292 293 290 290 288 286 284 283 281 282 283 281 283 285 286 284 281 281 281 282 282 286 282 285 282 283 284 285 281 279 285 283 285 285 288 291 293 293 295 297 295 295 283 288 289 286 283 281 283 285 289 290 287 286 289 293 293 294 295 294 292 288 285 288 287 289 290 291 293 295 296 291 286 288 291 291 292 294 293 292 292 293 294 293
290 283 282 281 287 288 286 287 287 287 284 286 280 282 281 283 283 285 287 283 284 283 281 281 283 283 279 283 282 282 285 285 282 280 284 285 285 285 287 289 292 293 295 294 295 292 282 284 287 287 287 287 288 287 288 291 288 289 290 291 293 293 293 291 289 287 293 288 284 290 292 290 292 295 296 295 287 288 289 290 292 292 293 294 296 293 292 290
284 284 286 288 285 282 283 284 287 287 287 287 283 285 282 282 281 279 285 285 283 284 285 283 282 284 285 285 284 280 281 282 284 282 283 285 284 286 287 287 290 293 294 291 294 293 286 286 288 288 287 289 290 289 283 287 289 290 290 291 291 293 293 289 290 293 293 288 286 292 292 290 293 296 297 298 292 292 291 293 294 295 293 291 290 292 293 291
286 285 285 289 284 286 287 288 288 287 286 286 283 285 282 282 282 284 283 281 283 283 286 281 283 284 285 286 285 281 282 280 280 284 284 283 284 284 282 286 289 289 292 290 290 287 287 286 288 288 287 288 289 289 286 284 286 287 289 290 292 292 292 293 293 294 293 292 293 294 293 293 296 297 298 300 293 291 292 293 291 290 291 291 289 291 292 293
282 284 282 286 285 286 287 286 285 285 284 287 282 283 283 283 282 284 283 283 280 283 283 284 284 284 284 285 285 283 284 286 286 283 286 285 281 283 282 285 283 288 290 289 289 289 289 286 290 287 284 285 288 289 289 288 288 287 288 288 290 291 293 294 294 294 294 293 294 294 293 292 298 300 300 293 290 291 291 290 291 291 289 290 291 292 293 295
286 285 287 286 283 285 287 286 285 285 284 285 283 283 284 284 283 285 284 285 285 283 284 284 285 282 282 283 284 285 287 287 287 287 289 288 284 287 286 283 289 285 288 286 287 286 288 285 289 285 282 283 286 286 287 287 287 287 287 288 287 287 285 289 290 294 292 290 292 292 291 292 298 301 301 293 292 293 294 293 292 291 291 290 291 293 294 295
287 288 287 289 282 287 286 286 285 285 282 286 285 285 284 284 286 286 283 284 284 285 286 286 284 284 280 283 284 287 289 285 286 285 287 288 287 281 282 282 288 289 287 288 290 287 287 285 284 285 281 281 286 286 285 285 284 282 284 287 289 290 291 291 293 295 294 295 291 288 290 297 299 299 296 298 299 298 296 294 293 292 291 291 292 294 295 296
Wind_Speed
27 29 29 28 28 27 25 24 24 23 21 21 19 18 17 17 18 17 18 17 14 15 16 15 10 15 15 13 14 16 10 5 5 3 4 7 5 3 3 6 7 7 6 4 4 4 1 2 1 3 3 1 2 0 2 2 1 1 2 4 1 3 5 5 5 8 1 0 2 1 3 3 1 1 0 1 3 2 1 1 3 1 3 3 4 3 1 6
29 29 29 28 26 29 25 24 24 24 22 21 20 19 17 17 18 18 18 18 14 15 13 15 16 11 13 14 13 13 8 3 7 6 14 3 7 7 2 3 5 7 6 4 6 4 6 0 1 3 3 1 1 0 1 1 0 3 2 2 8 4 4 5 5 6 3 1 1 2 1 2 2 4 1 1 1 0 0 3 1 4 4 1 2 2 7 7
28 28 29 29 26 30 27 26 25 24 23 21 20 19 18 17 17 18 18 18 16 14 12 14 14 5 6 15 17 14 8 2 2 9 15 10 6 5 5 6 6 7 2 3 3 7 5 7 5 4 2 2 5 1 2 1 1 1 5 4 7 5 2 3 2 4 4 5 2 2 0 1 1 2 0 1 2 0 5 4 2 4 6 5 0 1 5 6
29 30 28 28 28 29 30 27 25 24 24 22 20 20 19 17 18 18 17 17 16 14 13 13 13 13 11 12 12 7 7 5 7 5 4 15 9 3 5 7 7 5 5 6 4 4 5 6 3 4 1 2 2 1 1 2 1 1 2 6 4 4 2 3 6 2 5 4 4 4 1 1 1 2 2 3 2 4 6 6 8 10 10 5 4 4 5 7
25 27 30 29 25 27 31 27 25 25 24 23 20 18 19 18 18 18 18 18 17 16 14 13 14 14 14 15 12 3 5 4 5 4 4 17 12 6 7 8 7 3 2 6 8 5 6 4 3 2 3 2 1 1 1 1 0 3 5 2 2 1 1 2 5 3 4 1 4 3 5 4 1 1 3 6 6 7 7 8 8 7 5 6 8 8 5 7
25 26 26 27 27 27 32 27 27 26 24 23 22 19 18 18 18 17 18 17 18 17 16 15 15 16 15 14 6 1 6 11 0 1 4 16 16 11 9 9 9 7 7 4 4 4 5 2 4 2 0 2 4 5 1 1 0 3 2 2 2 2 3 1 2 3 4 3 3 4 3 3 2 1 2 6 7 6 6 1 3 7 5 3 2 8 8 8
23 23 28 25 25 30 32 27 26 26 25 24 22 20 19 18 18 17 17 17 18 18 16 16 16 18 17 10 3 1 3 3 1 3 0 6 17 16 11 10 9 6 6 5 5 4 3 3 3 3 4 2 1 3 1 1 1 1 3 1 2 2 4 0 1 4 2 6 3 2 1 1 3 4 1 4 8 8 4 1 3 4 3 5 7 9 13 14
23 26 25 27 25 26 29 26 25 24 23 23 21 20 19 17 16 17 19 19 18 17 17 17 17 18 18 7 5 1 1 6 2 2 3 2 7 10 12 6 8 5 5 8 8 8 7 9 4 1 1 7 3 7 2 2 1 3 3 2 0 1 2 1 1 2 1 1 0 3 2 3 5 2 3 5 10 8 6 1 1 3 4 4 5 9 9 9
23 25 26 26 24 27 31 27 25 24 23 23 22 21 19 17 16 16 18 20 18 16 18 17 19 19 12 5 3 3 10 5 1 4 3 5 7 9 10 4 4 8 5 5 5 8 9 6 8 4 4 3 2 6 2 5 6 4 5 1 0 1 1 0 0 0 0 0 0 1 4 4 4 1 3 8 7 5 1 1 2 4 4 6 8 9 9 10
24 24 24 24 25 29 31 27 25 24 23 23 23 21 20 18 17 16 16 18 17 16 16 19 20 19 9 7 5 12 5 5 0 5 2 9 10 9 5 4 6 7 7 4 4 6 8 7 13 9 3 1 4 1 2 4 4 3 3 4 2 1 1 2 3 1 1 1 1 3 2 2 2 2 7 2 9 0 1 0 1 5 6 7 6 7 8 9
24 27 26 25 26 31 31 27 25 24 23 23 22 22 21 19 17 16 15 16 19 20 17 21 21 15 10 9 12 16 2 1 2 6 4 10 12 10 4 4 2 6 6 4 5 6 3 5 5 6 2 4 5 0 2 2 3 3 4 1 1 2 1 0 0 2 0 1 3 2 3 2 3 1 6 1 1 2 3 2 2 4 6 8 9 9 8 8
25 26 28 26 28 29 32 27 26 25 24 23 22 21 20 18 17 15 15 15 18 21 20 21 23 10 7 11 12 8 2 2 2 8 8 7 5 4 7 4 4 5 8 7 4 1 3 6 11 7 4 5 2 2 3 3 1 2 3 2 2 2 3 1 4 1 2 3 3 3 2 5 3 7 3 7 2 1 2 3 4 5 7 7 6 7 6 11
24 25 27 27 26 26 33 27 26 25 24 23 22 21 20 19 17 15 14 14 16 18 19 10 15 5 10 14 8 1 1 0 3 11 10 9 8 6 5 5 7 4 3 7 4 1 3 5 7 5 1 4 5 2 1 2 0 2 3 2 3 1 3 6 1 1 3 2 4 1 7 6 12 10 4 6 5 1 2 5 5 6 6 6 5 7 8 7
26 26 27 27 26 29 35 29 25 26 25 23 22 21 19 18 17 15 15 12 14 18 19 20 7 3 9 3 1 1 2 3 5 11 9 10 13 4 6 6 8 6 3 6 2 2 4 2 5 5 1 4 3 0 2 2 2 3 1 2 4 2 5 1 4 4 4 2 4 2 7 10 9 3 4 6 5 6 8 7 7 7 7 6 6 7 8 9
27 27 27 28 27 28 30 31 27 26 25 24 22 19 20 19 16 16 15 12 15 17 22 16 5 8 3 1 2 3 4 4 8 7 8 12 14 8 7 7 9 8 5 3 2 1 5 7 5 2 1 1 2 2 2 1 2 0 2 6 1 7 2 2 1 6 9 1 2 3 7 12 13 6 6 5 6 6 10 8 7 7 7 7 6 7 8 10
26 28 29 29 29 28 29 27 27 27 25 25 21 18 17 19 17 17 14 10 12 12 12 8 5 4 3 5 2 3 3 5 6 7 2 13 10 8 8 8 8 8 6 4 3 1 2 4 3 3 2 1 3 5 3 1 2 2 7 0 5 3 3 5 1 4 7 3 1 8 8 6 7 4 3 1 3 2 5 6 7 7 8 8 7 7 8 8
27 29 26 30 27 28 26 30 28 26 26 25 25 22 20 18 18 17 14 14 9 7 6 5 3 1 6 0 2 5 4 1 5 2 2 1 9 15 11 9 6 8 7 3 7 3 5 3 1 1 1 3 3 4 3 6 5 5 0 3 1 4 3 4 2 3 5 4 5 5 7 16 6 3 0 1 2 3 4 7 7 8 8 8 7 7 8 9
27 27 29 28 32 33 31 29 27 29 27 29 24 23 20 20 19 18 13 10 8 4 5 4 4 3 7 2 3 5 3 5 6 7 3 0 11 11 12 6 5 9 6 4 4 3 3 2 1 4 2 3 6 8 11 13 10 5 4 2 0 1 5 6 4 2 6 2 6 3 7 15 14 7 7 4 0 1 5 7 8 8 6 6 6 7 9 10
25 26 29 28 29 31 26 28 30 27 31 26 25 26 24 19 10 8 9 7 9 6 6 6 9 11 3 10 9 3 3 5 8 9 5 10 4 3 2 8 11 12 2 3 1 2 1 4 2 5 10 9 12 14 12 2 5 5 5 3 3 5 5 6 6 1 8 5 7 7 8 13 19 11 10 7 6 5 9 8 8 8 7 8 9 9 9 9
26 26 29 33 29 27 25 24 30 28 30 19 18 15 10 10 5 4 4 3 5 4 3 13 11 1 3 2 7 0 3 8 10 1 7 3 12 7 5 5 5 4 9 5 2 1 0 7 10 13 14 13 9 9 8 2 1 8 7 7 8 6 4 3 3 2 0 0 7 9 8 11 19 11 7 6 2 4 9 14 15 12 9 9 10 13 14 13
27 31 32 31 30 27 28 29 30 31 28 18 18 16 12 13 15 9 7 2 1 4 2 4 5 3 0 1 4 11 10 2 2 5 6 4 9 13 3 5 8 8 7 9 7 1 1 8 11 10 6 7 9 6 2 1 3 6 4 5 6 6 8 4 4 1 0 3 3 3 6 12 18 14 10 6 3 8 12 15 15 15 11 10 13 16 16 14
28 33 33 33 31 33 35 31 31 30 26 17 16 10 9 17 4 10 13 11 5 2 4 7 5 3 1 1 4 4 5 5 10 7 2 3 10 8 5 5 13 14 7 6 6 1 4 7 8 5 2 3 4 5 3 5 0 1 3 4 3 6 2 5 3 1 0 2 7 4 7 10 14 16 8 6 7 9 13 15 15 13 13 11 13 14 13 10
27 33 36 32 33 33 37 34 29 25 16 16 13 12 13 10 7 9 7 7 7 1 3 4 6 1 2 3 1 1 10 8 10 12 12 6 11 7 11 7 11 8 9 12 11 7 6 7 10 3 5 5 3 5 5 3 1 3 2 3 7 2 5 5 4 2 2 5 1 1 5 9 10 14 14 11 9 11 15 14 13 10 13 16 16 13 13 13
28 32 31 32 33 33 31 30 29 20 16 19 16 15 10 10 13 11 10 5 4 4 1 0 3 2 3 6 2 3 8 2 4 12 6 7 11 6 9 10 12 11 12 15 15 13 15 4 2 8 5 9 7 7 9 7 8 3 4 5 4 4 6 7 3 1 1 2 1 4 9 12 9 13 15 8 13 12 14 11 10 11 13 16 12 11 13 14
30 32 31 30 30 28 29 31 14 12 12 16 9 3 11 12 12 10 11 3 2 0 2 1 1 2 3 1 2 4 1 2 1 5 8 11 8 6 6 3 6 11 13 14 13 12 14 12 1 1 3 7 7 7 8 9 8 7 6 8 5 5 6 4 1 1 2 4 1 2 5 10 4 12 15 6 1 4 6 7 12 14 12 11 13 17 14 11
31 32 32 32 29 34 34 15 11 12 13 10 9 11 14 12 10 7 11 4 4 1 2 6 4 7 4 0 1 2 1 1 2 3 8 5 2 4 5 6 4 12 10 12 10 5 10 8 7 2 5 8 11 8 6 7 9 8 6 8 4 4 5 4 2 1 3 6 2 1 6 12 1 5 5 7 5 9 8 6 11 12 12 11 13 14 11 12
33 32 32 30 30 29 18 9 12 13 13 4 8 12 12 11 7 6 6 6 1 4 8 1 2 3 1 6 4 7 9 6 1 3 8 4 8 2 8 5 3 3 3 3 1 9 5 12 13 10 3 7 8 9 9 14 9 7 2 10 6 5 4 3 2 1 3 1 3 1 2 6 13 12 4 7 12 12 11 12 10 12 12 11 12 12 11 13
34 33 32 30 30 27 12 11 17 17 15 10 12 15 14 10 7 5 7 6 5 7 6 1 2 1 2 3 6 5 2 6 7 6 9 2 6 1 3 9 12 13 10 8 13 2 12 8 14 15 13 6 7 11 5 11 7 2 5 9 6 6 4 3 3 2 0 4 8 2 1 3 9 5 4 9 13 13 11 13 15 15 16 12 12 14 14 14
32 30 33 31 30 18 5 10 15 15 7 11 5 11 11 10 6 7 5 6 4 2 5 8 2 3 3 5 4 1 2 1 3 6 5 3 3 3 6 10 7 9 10 17 13 1 4 17 20 19 14 13 12 5 9 13 9 2 1 4 4 4 3 5 2 4 0 2 10 9 6 7 17 8 4 1 6 12 8 12 15 13 15 15 12 11 12 10
28 27 38 28 24 10 7 9 10 3 12 10 12 14 15 12 8 8 7 8 3 0 2 2 6 9 7 11 6 3 3 1 1 5 4 5 3 3 2 2 4 9 8 9 3 0 1 3 7 9 13 17 14 6 8 11 2 3 4 6 3 4 3 2 2 3 1 7 14 12 10 9 12 5 8 7 9 7 9 8 8 12 14 13 11 12 12 8
31 33 30 32 16 12 14 13 12 11 13 10 14 16 12 7 6 9 8 6 6 2 5 6 6 12 17 17 13 3 3 2 1 6 6 2 3 2 3 4 3 2 6 8 9 3 2 3 6 4 6 3 9 4 2 6 6 7 1 3 3 1 2 1 1 2 7 10 15 10 11 11 11 5 2 4 2 3 7 9 11 13 13 11 10 11 10 7
31 31 30 21 13 11 18 17 16 17 15 12 17 14 14 10 2 11 5 1 4 6 11 8 5 10 14 11 11 11 9 1 3 8 9 10 8 13 10 9 10 5 5 10 11 6 4 6 1 3 0 12 3 10 1 4 3 5 6 6 7 3 5 7 6 7 8 12 6 2 8 2 16 22 4 5 6 7 7 8 10 10 12 13 10 9 7 5
37 30 34 16 14 10 7 12 14 15 16 15 14 11 11 10 13 6 3 4 3 8 5 9 14 16 16 16 11 12 3 9 2 5 9 9 7 9 9 9 9 6 5 11 9 7 3 2 2 2 1 4 10 12 7 5 11 11 11 10 9 7 6 7 5 2 3 4 15 3 3 6 7 14 18 22 17 15 14 14 12 13 16 12 10 7 8 9
30 34 20 13 8 7 14 17 14 19 18 13 14 8 4 11 8 8 5 2 4 2 15 8 13 12 18 12 10 12 7 1 9 6 9 7 11 10 10 9 9 7 3 7 11 9 7 10 8 9 7 9 13 14 15 5 12 12 5 9 8 8 3 6 5 7 10 13 1 1 6 5 3 7 1 4 6 9 9 5 7 10 9 13 11 9 10 11
36 28 16 11 9 14 16 13 17 20 15 14 12 10 16 11 6 15 4 2 1 3 6 10 16 13 11 5 3 7 2 5 5 8 8 8 10 7 7 12 10 5 1 7 3 3 13 7 3 19 3 15 15 12 6 7 5 7 5 4 4 9 2 5 1 2 4 6 5 2 5 5 10 3 6 6 5 7 6 8 8 14 14 12 12 13 14 12
30 12 15 9 13 14 17 13 19 18 14 13 12 11 12 10 11 9 7 6 4 8 11 12 11 13 11 7 1 13 1 4 7 7 5 7 3 10 7 4 12 12 7 8 3 6 4 10 4 10 6 18 18 12 4 11 9 7 9 10 15 5 5 4 2 0 1 2 8 3 3 7 9 18 18 17 9 10 8 10 9 13 15 13 11 14 12 11
11 17 11 13 12 16 17 16 16 18 13 12 13 12 9 6 2 7 4 10 6 17 15 18 11 11 11 8 7 13 5 6 9 9 7 6 5 6 5 4 5 9 9 6 1 2 8 5 4 6 6 10 13 10 5 10 4 6 9 10 4 5 4 5 5 1 2 6 5 3 11 12 1 15 3 4 16 17 11 15 15 14 12 10 12 12 12 10
12 14 13 15 16 13 16 18 18 15 12 11 11 6 1 3 1 5 4 7 8 6 9 9 3 8 11 11 11 15 8 12 10 9 5 13 5 10 10 5 8 11 14 8 3 2 3 6 2 7 14 6 6 7 5 5 2 3 4 4 8 2 7 3 2 9 1 5 4 5 10 12 8 16 6 2 5 9 11 16 14 14 13 14 13 13 10 10
13 12 11 12 10 13 13 17 15 16 13 11 11 10 2 1 1 4 4 7 5 10 12 4 5 4 9 11 8 10 14 12 12 11 10 8 7 9 16 8 7 12 13 11 4 2 0 3 2 3 7 4 7 10 12 11 8 3 1 6 1 3 4 8 10 1 2 7 1 10 5 9 9 12 20 16 6 8 10 11 15 18 17 16 15 13 10 10
14 6 4 10 13 9 6 10 13 11 10 17 14 6 5 4 1 0 6 11 3 4 1 5 1 8 8 5 10 11 11 12 14 8 9 5 9 3 13 12 4 7 10 12 10 4 2 1 6 1 1 5 5 7 14 15 13 8 5 4 2 3 1 2 1 6 5 8 8 4 13 6 12 4 5 10 11 11 12 15 14 14 16 16 13 9 7 7
6 6 7 11 11 11 12 10 11 13 14 6 3 1 5 4 2 1 4 6 4 2 3 4 8 9 8 10 4 5 5 6 5 8 8 5 13 4 7 13 10 13 8 6 10 6 3 3 8 2 4 9 6 10 17 14 15 15 14 13 15 12 5 7 7 2 1 2 5 6 17 11 8 5 9 13 11 13 15 15 15 15 15 15 11 8 7 8
7 6 8 13 12 16 15 13 4 5 5 10 10 5 3 4 4 1 3 3 7 2 3 5 2 4 5 3 4 7 5 8 7 7 6 9 8 9 4 15 14 8 13 11 13 13 7 2 5 6 2 7 8 1 4 9 2 10 12 13 12 8 9 9 13 6 3 9 4 4 4 18 13 7 8 11 9 11 14 12 15 14 13 13 13 5 7 7
4 4 12 18 14 18 13 8 9 8 5 4 6 6 4 3 3 2 4 0 2 1 2 2 5 6 3 4 4 6 11 7 10 10 6 10 8 10 0 12 9 7 8 3 4 4 6 3 1 6 5 3 8 5 9 6 4 2 10 3 4 12 13 14 13 4 5 2 5 4 8 14 18 7 10 8 7 11 11 10 14 13 11 12 12 7 9 8
4 9 9 8 13 13 13 12 14 10 3 4 5 2 3 2 5 3 4 4 4 2 5 4 1 0 4 3 4 9 10 3 4 7 4 3 7 8 6 10 12 7 11 8 10 10 7 3 9 8 5 4 5 2 7 2 2 4 6 12 13 11 13 7 1 2 6 10 11 10 15 10 18 5 4 7 8 9 9 8 7 10 10 11 12 12 7 7
6 5 6 7 5 7 8 2 16 15 11 12 9 7 5 2 1 4 5 5 2 3 4 1 2 3 3 1 4 3 7 7 2 8 3 0 6 2 5 10 11 8 11 8 11 8 9 6 12 13 15 12 11 12 14 13 15 7 8 14 15 17 16 9 12 7 13 10 13 9 11 16 20 2 3 5 7 6 6 6 6 5 7 10 12 13 11 7
3 7 2 3 3 5 1 4 3 10 11 12 10 5 5 3 2 4 5 2 2 2 2 4 3 7 3 5 3 4 5 5 4 4 9 7 6 2 6 12 12 9 13 10 7 8 2 4 10 13 15 17 16 11 6 3 3 7 1 9 14 14 17 17 10 12 16 9 13 13 15 17 24 24 24 12 4 6 9 7 10 11 10 12 12 13 11 8
2 4 6 6 4 3 2 2 6 6 10 10 9 6 11 8 2 1 1 3 2 4 2 1 3 7 3 8 7 7 9 10 1 3 10 11 7 2 2 8 8 11 12 6 6 5 1 5 10 11 18 17 15 16 3 8 9 9 14 17 16 16 16 18 15 16 9 11 17 9 15 15 26 30 25 15 5 8 7 8 10 9 9 12 13 8 7 8
2 1 2 0 3 10 5 3 4 11 6 13 5 7 9 7 2 5 1 1 4 4 6 1 1 7 13 15 9 6 6 6 8 9 4 9 5 1 1 4 8 13 12 4 7 8 5 11 11 11 17 18 20 19 5 2 5 9 14 14 17 17 17 20 22 22 17 15 17 15 15 16 24 29 24 18 8 10 11 12 14 13 7 6 6 9 10 9
3 3 2 2 2 5 16 16 16 14 13 16 3 13 13 14 12 8 5 2 2 3 7 7 11 12 12 11 11 8 10 8 8 10 9 8 13 7 4 1 6 4 7 5 5 0 4 11 10 12 16 18 20 19 6 6 4 4 9 14 18 17 19 20 20 20 23 19 15 17 14 18 20 26 27 18 3 6 7 9 7 4 7 6 7 9 11 10
2 5 2 1 3 6 8 7 5 7 7 12 5 6 9 16 18 7 2 7 6 7 4 11 11 11 9 10 11 12 12 15 16 15 9 7 4 3 4 7 2 3 4 8 4 1 8 9 13 10 11 17 18 17 13 15 13 14 10 7 10 13 16 21 21 21 20 22 20 18 20 22 19 20 23 3 4 6 6 7 9 7 6 7 8 9 11 14
2 1 3 7 4 1 7 7 9 11 9 9 8 6 6 11 12 12 5 1 13 10 11 23 16 6 3 4 8 14 12 13 11 11 7 12 14 9 10 3 7 4 7 5 4 3 9 6 6 4 11 14 14 16 17 16 17 19 18 14 7 7 11 11 14 16 18 22 22 23 22 21 20 22 19 5 5 9 13 11 7 7 7 7 9 12 14 16
2 1 3 6 5 1 8 5 6 6 8 11 13 12 9 16 12 11 5 2 2 3 9 12 6 9 4 10 15 20 14 4 3 7 8 4 2 2 2 2 5 10 8 12 9 9 8 5 9 7 12 14 18 16 17 13 11 15 18 17 17 18 17 14 17 17 20 17 18 18 20 21 24 13 8 16 18 15 9 6 7 8 8 9 12 15 17 17
Wind_Direction
226 225 224 220 224 206 200 199 197 195 201 195 189 192 196 199 193 192 195 193 185 184 193 196 202 182 165 154 144 135 147 129 143 155 187 229 181 199 196 163 133 163 147 97 90 105 40 53 97 347 39 39 313 60 291 38 1 65 126 116 200 207 174 197 173 189 174 118 255 249 214 118 158 145 220 106 40 74 329 303 297 298 241 215 260 296 118 137
228 224 221 222 221 217 199 198 198 194 195 196 191 189 190 195 194 190 191 191 184 184 180 186 197 176 157 153 138 139 128 119 169 178 215 144 202 196 110 142 135 146 122 109 141 140 128 114 80 65 82 93 334 343 7 215 29 111 105 119 220 191 242 162 192 183 130 271 195 215 275 168 199 149 242 124 271 44 233 278 3 317 294 314 344 111 127 140
231 224 220 220 218 220 202 197 197 194 190 195 191 187 187 190 193 188 188 188 186 183 175 177 184 165 162 141 146 143 121 75 133 228 229 211 228 207 163 146 140 154 121 144 177 143 157 176 172 98 25 136 3 201 25 266 82 214 127 205 236 208 251 242 180 195 192 138 145 181 210 165 235 157 118 194 196 50 206 223 287 271 256 242 307 160 151 152
232 227 221 220 217 219 207 196 195 194 189 189 194 186 184 185 190 193 183 183 181 180 171 166 160 151 130 131 134 154 118 110 217 229 194 188 213 186 164 136 149 131 85 65 131 105 100 93 81 102 92 102 296 46 163 264 121 243 115 198 226 189 189 231 192 216 201 157 163 141 125 150 253 210 153 167 118 258 264 234 196 218 223 216 184 181 171 166
229 229 221 218 215 216 215 196 194 194 190 184 188 192 181 180 183 192 188 181 178 175 168 157 150 153 146 141 159 217 119 175 243 181 191 168 193 198 155 142 129 116 124 144 83 56 86 108 113 48 101 186 28 39 259 326 139 108 212 189 180 107 223 252 197 146 141 242 114 140 132 206 94 73 128 148 176 231 213 242 222 238 223 165 175 188 179 182
225 224 225 223 219 211 210 196 193 194 190 182 179 187 188 177 178 185 188 181 179 174 165 155 143 142 139 145 142 105 159 209 44 321 294 171 180 184 154 141 122 112 116 100 107 98 93 57 97 136 136 116 186 161 258 167 44 205 309 259 219 202 175 326 170 177 126 133 154 146 209 87 141 201 193 173 197 231 217 201 211 230 216 208 136 157 181 190
224 220 222 217 220 216 212 195 191 192 190 184 177 178 187 178 176 180 180 190 177 175 166 156 147 141 141 125 84 74 281 306 325 231 313 221 179 178 142 122 111 101 97 94 113 125 135 134 136 182 129 130 260 172 236 134 23 120 230 302 280 171 196 192 177 117 181 139 212 207 58 165 138 208 145 187 241 238 236 212 231 245 160 145 158 181 185 192
223 221 218 218 216 216 211 199 188 188 189 184 177 174 180 177 176 176 174 189 189 178 170 163 150 141 137 127 128 222 135 256 241 286 232 121 188 154 119 113 121 116 115 144 151 144 138 133 200 76 126 165 216 161 186 106 60 201 259 209 253 138 246 277 153 109 154 200 348 108 127 233 181 201 115 244 242 250 265 20 135 132 134 163 189 191 200 201
217 216 215 215 213 214 209 201 187 186 186 182 175 173 175 177 175 173 173 178 187 183 177 168 157 152 144 119 148 163 233 188 142 342 355 125 128 122 128 124 149 134 154 132 172 160 138 188 156 215 218 203 195 158 215 147 282 193 219 144 345 253 323 315 114 158 23 299 82 91 262 284 255 279 243 238 260 237 216 89 111 125 149 192 205 204 200 203
215 210 213 206 210 210 208 200 185 184 182 180 174 172 172 172 176 173 173 175 171 179 181 172 156 160 149 139 119 218 223 84 73 23 16 110 112 112 84 116 148 131 131 173 120 152 174 185 172 173 137 128 136 189 174 169 219 166 162 174 165 281 349 21 195 282 344 231 175 188 270 271 5 103 273 273 241 6 148 80 127 152 191 207 214 215 219 212
213 212 207 206 207 207 201 197 184 181 180 179 172 170 170 167 168 172 171 171 165 184 175 173 160 156 165 161 174 213 85 130 114 93 70 117 121 130 123 101 126 140 133 152 167 184 180 131 105 88 0 233 141 166 136 221 127 104 148 86 287 319 345 268 50 264 342 271 158 160 253 283 284 107 222 236 327 135 196 239 211 202 212 213 217 216 218 224
213 210 210 204 206 207 201 193 180 178 177 176 172 167 166 164 161 166 168 168 169 174 173 171 165 160 157 171 199 207 20 38 132 115 108 110 100 97 109 103 88 142 149 163 188 205 153 160 140 155 184 138 169 121 246 204 77 154 153 253 291 350 288 267 212 243 151 256 146 149 330 284 236 231 209 236 200 146 181 218 228 232 237 231 229 228 222 225
215 207 206 204 204 205 202 194 180 175 174 173 169 165 163 160 159 159 165 168 170 165 165 179 160 175 146 184 208 185 216 11 121 106 100 92 89 70 78 71 64 86 150 141 151 209 174 149 144 116 206 129 165 141 147 94 27 143 57 144 308 14 300 246 122 45 143 243 157 152 267 226 240 245 217 239 249 245 278 255 246 242 246 247 234 228 234 236
218 209 202 198 197 201 198 193 179 172 170 168 165 162 159 158 155 153 155 162 172 157 156 163 155 74 167 185 132 245 233 136 136 112 126 123 102 79 69 47 40 28 40 108 123 138 108 110 109 119 109 107 173 267 65 13 25 185 223 86 205 178 255 279 180 157 165 202 185 137 246 270 260 266 259 243 221 208 237 238 247 245 248 248 240 236 234 237
210 208 201 193 195 199 194 190 182 170 165 161 159 155 153 154 151 145 145 152 172 160 155 152 131 92 211 237 315 275 132 101 138 156 162 117 115 92 97 84 65 41 2 79 123 154 140 111 102 111 132 263 103 97 29 44 357 193 112 233 115 201 281 302 212 163 193 284 180 127 260 258 268 260 234 232 209 209 234 242 251 258 259 259 256 250 247 243
207 204 202 195 192 194 189 187 180 168 162 157 153 152 153 147 148 144 131 141 154 145 131 119 159 134 123 215 210 326 134 152 189 161 232 134 130 123 136 108 96 57 32 352 11 70 44 96 110 176 118 47 75 118 85 53 273 293 207 151 201 176 238 342 217 229 227 131 269 180 237 289 297 254 297 286 174 181 242 269 264 261 257 254 250 248 252 262
208 204 196 194 187 188 188 186 177 166 158 151 152 153 153 144 142 137 130 121 120 131 122 130 104 130 182 262 63 164 145 133 122 118 116 32 119 133 119 99 86 91 90 29 0 35 357 70 295 59 55 137 150 117 147 230 248 224 146 198 215 169 146 230 312 250 232 178 219 230 219 244 225 223 101 10 147 158 226 251 257 252 248 244 248 249 252 251
206 201 197 190 189 186 186 182 175 160 157 154 151 145 140 124 102 81 68 94 91 90 83 32 109 79 269 148 158 175 155 116 153 136 86 153 137 133 124 117 109 97 90 80 3 47 325 80 339 182 125 149 155 171 195 217 208 171 153 167 112 78 183 208 170 254 147 261 221 227 238 259 255 260 277 278 68 194 246 244 248 253 254 261 250 251 250 250
197 197 194 190 185 181 172 174 170 166 156 155 136 117 105 89 83 65 105 141 124 137 193 190 159 203 144 191 200 51 147 137 115 132 135 125 139 74 34 117 121 115 67 88 288 74 346 72 40 145 199 186 197 195 201 92 130 172 134 155 170 182 211 214 237 278 173 186 216 215 223 249 260 248 257 263 254 259 268 270 263 257 260 263 262 258 253 249
198 197 195 188 184 173 163 168 169 166 149 138 124 126 120 128 125 123 333 210 193 155 23 155 182 98 57 38 148 149 75 132 128 35 134 166 125 114 101 126 104 86 135 159 105 72 205 187 192 196 204 200 197 202 202 102 122 143 157 179 207 205 255 284 280 257 247 248 237 227 238 244 264 255 258 256 262 263 265 263 262 258 253 253 262 261 257 254
195 199 196 186 179 168 166 170 168 161 150 144 142 139 162 149 144 163 157 123 126 39 81 142 164 114 5 222 148 139 132 92 66 135 156 160 118 125 169 134 129 158 182 145 136 91 22 222 217 214 213 189 198 191 197 338 106 146 161 176 213 196 227 219 229 20 332 171 299 256 242 249 263 269 258 252 194 239 245 254 256 260 254 252 252 259 258 257
199 195 188 183 175 172 172 168 169 157 155 148 150 146 133 168 133 140 143 164 196 42 43 149 108 59 1 104 140 134 118 127 136 136 164 165 163 150 212 163 162 188 148 120 107 181 290 260 237 214 166 177 178 165 171 214 150 225 153 187 219 241 277 292 252 264 256 138 258 258 249 256 258 269 260 242 214 232 240 241 248 254 260 254 250 253 262 264
197 197 183 176 173 169 169 166 165 156 152 156 159 135 164 151 109 92 80 81 150 83 77 126 169 47 95 339 304 145 153 163 161 160 173 182 165 190 157 164 178 150 144 145 178 182 241 267 270 181 160 125 92 149 166 184 257 194 170 146 228 147 142 275 282 227 231 176 232 39 302 273 273 276 264 242 222 233 238 244 248 239 252 253 249 247 251 250
190 182 179 172 169 167 160 158 156 166 165 160 160 159 143 125 126 122 94 150 150 135 122 212 135 164 159 144 221 112 150 153 146 168 175 167 166 140 159 178 156 149 178 175 184 188 202 197 270 174 168 147 160 162 179 197 223 214 211 214 204 148 207 195 252 349 318 307 60 334 301 282 242 266 274 226 223 231 247 251 255 252 241 252 262 262 246 251
184 176 174 166 168 153 148 143 162 170 161 150 146 113 122 127 131 130 100 58 50 305 314 258 105 219 186 34 356 132 231 67 72 160 172 169 148 142 189 154 144 185 181 178 181 194 220 209 38 294 123 148 152 178 191 181 223 223 223 206 205 182 206 229 312 58 11 323 350 158 314 270 215 225 249 276 339 262 251 241 248 250 248 253 254 252 254 251
176 170 168 163 160 163 142 144 178 160 156 165 151 156 133 136 132 109 92 75 171 247 103 217 151 210 144 27 80 120 72 117 251 154 163 167 54 141 140 187 177 190 170 164 179 203 219 194 178 155 178 174 182 189 194 169 209 212 229 179 172 191 206 193 185 133 302 257 303 34 211 281 54 262 248 265 256 255 270 243 257 258 253 243 244 252 250 245
171 166 160 156 158 145 138 168 156 139 152 195 166 141 135 125 127 122 103 5 12 196 169 66 161 249 315 170 150 142 164 227 65 137 171 191 158 293 152 160 138 33 118 133 84 224 150 173 194 193 195 200 187 207 192 177 185 228 127 142 170 180 176 180 130 198 269 315 292 28 148 261 287 254 216 254 261 254 265 266 250 254 254 242 246 249 245 244
165 162 158 155 153 157 155 141 153 166 175 148 154 141 128 132 95 65 83 153 234 133 187 165 199 271 102 187 163 147 213 138 141 209 176 130 110 14 146 181 178 162 159 148 204 19 147 169 190 194 201 212 223 216 161 166 163 223 162 154 191 167 181 139 138 177 151 26 289 206 285 301 252 276 225 208 250 256 244 251 260 258 260 256 243 243 243 242
153 155 150 156 153 149 119 145 160 162 117 109 112 116 119 108 100 128 146 154 254 113 251 131 239 92 108 111 169 108 66 49 141 153 120 16 14 159 176 199 178 154 171 175 194 119 178 185 189 190 188 215 220 204 140 170 191 268 81 61 99 96 84 142 124 119 268 189 248 231 174 235 277 250 210 318 249 258 245 240 249 255 258 259 260 257 251 242
141 138 150 150 148 126 138 144 149 148 124 129 136 123 118 118 124 161 173 232 109 165 197 183 183 175 156 148 168 177 103 19 78 118 134 161 192 38 357 28 143 141 181 221 243 241 194 11 159 177 193 208 204 150 166 178 149 137 103 88 26 50 85 40 102 122 86 240 250 228 185 195 277 252 193 151 228 204 241 260 261 262 262 261 257 259 261 252
140 142 145 152 156 159 142 157 157 158 133 146 133 119 106 57 158 160 170 214 74 191 111 177 165 161 163 160 162 177 69 122 93 164 137 124 178 132 136 92 58 67 169 201 224 228 46 119 147 235 206 44 107 75 16 126 149 130 103 124 100 264 32 69 359 95 211 252 253 221 193 185 227 291 259 225 320 235 207 230 242 251 260 264 258 256 256 256
135 136 147 160 147 155 165 160 157 149 150 153 131 127 131 128 254 189 188 23 101 207 158 131 155 148 160 164 166 168 166 69 207 168 161 178 170 177 185 178 149 166 209 181 209 204 240 189 180 16 8 151 134 107 11 115 123 129 114 113 186 223 173 227 139 212 200 222 242 51 157 200 225 249 225 254 251 253 239 235 239 252 263 258 258 264 272 265
141 137 153 149 143 159 127 124 145 147 143 142 127 129 147 159 170 192 194 136 256 157 222 165 157 165 160 167 183 169 159 172 192 187 173 183 175 202 196 186 183 178 176 183 199 165 226 209 186 199 176 201 153 173 156 177 188 180 184 178 183 204 209 229 196 204 231 301 255 199 138 226 284 272 252 252 246 243 238 229 232 241 255 274 275 274 274 269
131 142 152 149 149 132 136 144 148 148 146 140 126 137 148 170 177 165 158 181 145 71 150 154 153 149 165 174 171 161 163 215 165 174 181 172 196 192 199 206 181 204 74 157 196 159 191 214 224 163 220 166 190 201 185 178 166 196 187 170 203 194 178 230 188 199 202 218 292 144 130 223 179 231 258 249 267 272 273 289 263 269 269 264 268 271 267 265
139 148 140 135 126 139 138 144 150 154 144 137 136 165 163 173 147 173 188 215 281 122 112 156 147 147 171 171 144 175 148 168 170 154 182 187 196 208 184 186 199 171 181 151 190 176 213 237 199 191 153 165 193 203 146 106 143 194 161 136 189 227 170 228 236 248 231 248 273 208 194 205 225 327 291 242 264 287 280 277 278 272 266 260 265 263 259 256
142 139 136 137 141 152 147 155 152 152 155 145 148 174 187 177 165 170 199 154 170 145 142 130 144 151 172 155 130 177 235 115 159 162 206 211 209 207 208 189 185 175 177 194 160 191 156 226 163 191 159 180 200 181 184 157 198 171 149 198 212 178 127 35 329 326 27 41 255 165 312 286 301 281 262 258 259 260 273 264 249 261 262 256 253 259 258 256
139 133 146 144 142 156 152 156 156 152 158 161 162 181 182 181 211 160 141 159 180 141 140 149 180 160 160 165 157 172 215 89 166 170 195 163 245 195 209 234 169 186 215 168 238 224 181 227 191 148 208 224 201 173 186 200 99 101 199 207 68 58 102 171 227 22 232 220 252 196 238 254 147 275 335 243 220 228 226 247 243 239 254 267 255 254 254 253
129 139 134 149 161 163 159 157 153 153 155 163 189 179 116 149 301 130 125 98 96 118 135 146 118 156 159 159 178 175 178 174 169 173 198 173 267 174 192 193 199 198 203 217 148 254 110 253 294 208 195 178 76 86 314 287 344 193 209 110 147 108 224 169 194 228 227 219 248 259 239 254 222 252 259 273 230 232 230 244 262 266 263 260 259 255 256 259
129 137 139 148 144 156 170 155 154 152 153 173 187 185 171 83 221 150 168 120 110 146 158 170 114 193 159 180 168 174 170 186 163 183 173 186 211 188 191 167 211 197 202 189 216 175 28 201 303 233 192 133 149 155 205 213 205 224 337 188 170 146 228 162 202 250 145 255 14 259 183 247 219 228 245 245 223 217 226 245 249 251 251 251 255 250 242 246
142 128 137 141 154 137 101 135 142 146 161 180 182 201 163 148 211 44 132 119 130 110 241 134 102 130 173 184 165 169 186 187 171 184 187 164 202 190 185 186 161 194 193 191 206 181 270 145 236 328 101 148 209 197 204 197 191 203 216 186 166 207 310 83 286 188 186 228 234 300 279 246 248 211 230 237 217 203 211 227 237 245 253 251 255 265 264 253
109 94 117 144 138 122 112 118 142 163 173 175 130 49 161 164 132 46 39 57 102 18 141 139 152 162 165 154 172 167 170 181 161 182 187 190 182 211 200 179 170 187 165 178 208 181 195 180 208 149 176 208 211 208 212 210 197 190 190 200 189 176 167 203 241 108 77 197 225 205 252 268 262 203 187 221 219 201 222 222 236 246 251 263 260 246 246 257
120 112 138 137 140 134 129 130 147 162 156 170 176 153 161 128 92 71 78 4 91 128 352 101 88 117 118 138 137 164 146 178 184 181 205 198 211 216 197 190 184 156 164 187 195 194 177 142 214 218 212 206 226 13 34 32 0 221 201 219 204 204 187 196 226 205 174 218 170 171 303 268 255 178 208 219 212 213 223 220 236 244 251 258 267 246 261 245
47 83 119 141 154 141 133 126 141 158 161 173 76 60 60 75 99 221 129 231 102 42 88 128 181 135 235 150 160 148 160 184 179 201 187 209 234 212 30 182 158 149 153 184 175 234 71 211 93 263 281 264 271 301 311 24 30 294 238 252 157 207 192 209 219 200 190 169 201 240 246 264 269 168 220 207 221 222 224 216 229 242 250 260 273 260 239 254
80 104 119 155 162 149 147 154 152 172 131 80 107 113 348 146 131 153 156 184 142 166 152 156 23 247 147 130 135 167 168 144 230 197 228 202 240 189 147 174 166 173 167 200 183 166 199 173 206 224 232 253 279 291 262 261 124 240 234 211 214 211 209 224 1 107 223 199 196 194 238 248 265 127 200 194 226 242 242 246 240 247 261 264 268 273 252 247
100 47 38 137 179 168 154 193 164 163 155 153 155 150 137 50 307 177 146 168 68 129 107 197 165 137 44 85 128 127 184 172 132 222 225 241 256 72 156 180 194 183 201 191 184 161 204 155 188 212 219 220 213 207 214 222 219 210 218 220 214 206 203 194 226 204 234 209 197 209 239 247 262 276 283 229 243 265 269 269 284 243 255 270 273 269 279 264
151 111 70 75 147 189 340 353 134 150 145 154 160 173 118 123 356 4 126 86 129 130 85 129 17 90 92 127 118 146 193 231 139 194 190 221 229 204 193 186 186 199 209 185 171 143 195 192 206 208 215 224 230 236 230 225 55 209 35 224 228 219 215 215 220 218 221 220 223 213 224 250 264 263 259 236 215 237 255 258 250 255 249 251 258 263 265 276
76 85 152 136 74 206 126 9 124 135 165 160 168 155 175 173 128 56 275 152 228 137 67 65 163 142 232 148 170 182 190 197 178 123 200 211 227 204 314 178 194 213 206 183 182 150 102 213 221 221 232 239 241 242 226 182 201 198 202 216 216 215 210 217 220 229 209 228 243 216 225 233 254 259 257 256 183 240 242 251 259 261 258 246 252 276 295 278
106 103 50 149 124 166 165 275 189 169 168 160 169 137 179 144 140 155 50 333 126 152 144 345 159 193 168 179 161 175 182 189 181 213 196 225 223 201 227 189 192 208 195 194 178 186 179 226 222 220 238 239 243 247 223 250 219 206 210 215 219 212 210 216 222 228 220 223 234 225 215 223 248 259 258 260 201 211 217 230 233 234 257 294 303 285 276 270
87 86 73 352 72 182 188 181 175 174 164 175 124 167 171 171 188 180 163 94 102 213 193 188 199 201 189 180 167 186 167 165 214 214 203 197 206 176 202 56 275 243 186 182 178 239 168 235 231 221 240 241 242 244 221 226 223 230 226 216 215 208 216 221 228 228 231 237 238 248 246 237 244 260 262 264 211 201 219 232 254 282 264 269 285 278 273 275
171 129 169 16 52 164 177 84 110 106 169 185 161 202 176 185 190 158 100 155 168 214 182 222 207 189 184 177 178 198 195 197 195 202 209 201 229 178 216 192 165 209 162 204 171 260 193 224 211 229 245 249 248 248 238 236 239 243 234 228 232 233 224 217 219 226 234 244 244 250 251 252 247 252 266 74 174 213 250 259 240 238 260 259 259 272 273 266
118 122 135 124 80 98 144 149 160 167 171 176 205 186 168 191 199 179 189 177 194 179 176 208 204 123 140 157 202 217 205 202 211 210 203 185 214 197 184 262 153 148 173 207 201 154 177 245 242 222 235 246 245 242 239 237 236 239 240 238 245 232 237 230 230 220 219 225 226 234 243 250 254 249 271 289 228 213 232 231 240 250 239 249 252 253 257 260
69 62 93 109 76 114 162 157 157 140 197 196 197 181 187 196 188 156 198 273 217 199 196 213 135 143 167 184 209 217 210 149 106 71 46 337 278 40 157 155 176 174 172 206 186 189 186 194 225 208 240 235 243 233 238 242 254 250 234 229 228 234 231 226 228 218 220 218 226 223 233 236 247 268 327 287 265 251 248 240 236 251 245 233 238 242 246 253